Location: Unspecified
(0.0000°N, 0.0000°E)
Time: 20:43:48
(UTC+00:00)

Amsat-Oscar-6 - Pass Details

Date: 02 May 2019
Orbit: 1448 x 1455 km, 101.8° (Epoch: 20 May)

Event Time Altitude Azimuth Distance (km) Brightness Sun altitude
Rises 03:05:14 0° 18° (NNE) 4,534 ? -41.1°
Reaches altitude 10° 03:08:00 10° 20° (NNE) 3,558 ? -40.5°
Enters shadow 03:15:24 72° 48° (NE) 1,516 ? -38.7°
